Date String (YYYY-MM-DD hh:mm:ss) UTC,Instrument flags,absolute air pressure of the measurement (hPa),sample flow rate (lpm),inlet stack bypass flow (lpm),air temperature of the measurement (°C),ambient temperature measured by the external sensor (°C),aerosol sample conditioner tube jacket temperature (°C),OPC LED temperature (°C),internal box temperature (°C),relative humidity of the measurement (%),span deviation,mass concentration of particles derived from Lorenz-Mie calculation of OPC scattering (μg/m³),mass concentration of particles derived from Lorenz-Mie calculation of OPC scattering (μg/m³),mass concentration of particles derived from Lorenz-Mie calculation of OPC scattering (μg/m³)
DateTimeUTC,F1_M11,P_M11,Q1_M11,Q2_M11,T1_M11,T2_M11,T3_M11,T4_M11,T5_M11,U1_M11,ZSPAN_M11,X2_M11,X0_M11,X1_M11
2024-04-02 19:00:00,SystemResetWarning,0831.5,4.99,000.00,020.8,020.3,000.0,029.0,022.5,16.2,0000.0,0002.87,0006.93,0001.62
2024-04-02 19:01:00,SystemResetWarning,0831.5,5.00,000.00,020.8,020.3,000.0,029.0,022.5,14.7,0000.0,0002.89,0007.00,0001.64
2024-04-02 19:02:00,SystemResetWarning,0831.4,5.01,000.00,020.8,020.3,000.0,029.0,022.5,14.4,0000.0,0002.86,0006.36,0001.66
2024-04-02 19:03:00,SystemResetWarning,0831.4,5.00,000.00,020.8,020.4,000.0,029.1,022.6,14.7,0000.0,0002.92,0006.03,0001.67
2024-04-02 19:04:00,SystemResetWarning,0831.5,5.00,000.00,020.8,020.4,000.0,029.1,022.6,14.8,0000.0,0002.89,0005.80,0001.68
2024-04-02 19:05:00,SystemResetWarning,0831.4,4.99,000.00,020.8,020.4,000.0,029.1,022.6,14.5,0000.0,0002.86,0005.67,0001.69
2024-04-02 19:06:00,SystemResetWarning,0831.4,4.99,000.00,020.8,020.4,000.0,029.1,022.6,14.2,0000.0,0002.94,0005.81,0001.72
2024-04-02 19:07:00,SystemResetWarning,0831.4,5.00,000.00,020.9,020.4,000.0,029.1,022.6,15.0,0000.0,0002.96,0006.10,0001.74
2024-04-02 19:08:00,SystemResetWarning,0831.4,5.01,000.00,020.9,020.4,000.0,029.1,022.6,15.8,0000.0,0002.95,0006.99,0001.74
2024-04-02 19:09:00,SystemResetWarning,0831.4,5.01,000.00,020.9,020.5,000.0,029.1,022.7,16.4,0000.0,0002.85,0006.76,0001.72
2024-04-02 19:10:00,SystemResetWarning,0831.4,4.99,000.00,020.9,020.5,000.0,029.1,022.7,15.7,0000.0,0002.89,0007.03,0001.72
2024-04-02 19:11:00,SystemResetWarning,0831.4,4.99,000.00,020.9,020.5,000.0,029.2,022.7,15.6,0000.0,0002.90,0007.34,0001.72
2024-04-02 19:12:00,SystemResetWarning,0831.4,4.99,000.00,020.9,020.5,000.0,029.2,022.7,14.8,0000.0,0002.87,0007.19,0001.71
2024-04-02 19:13:00,SystemResetWarning,0831.4,5.01,000.00,021.0,020.5,000.0,029.2,022.7,14.5,0000.0,0002.80,0006.94,0001.70
2024-04-02 19:14:00,SystemResetWarning,0831.4,5.01,000.00,021.0,020.5,000.0,029.2,022.7,13.9,0000.0,0002.70,0006.61,0001.68
2024-04-02 19:15:00,SystemResetWarning,0831.3,5.00,000.00,021.0,020.5,000.0,029.2,022.7,14.2,0000.0,0002.67,0006.53,0001.66
2024-04-02 19:16:00,SystemResetWarning,0831.4,5.01,000.00,021.0,020.5,000.0,029.2,022.7,14.2,0000.0,0002.65,0006.46,0001.66
2024-04-02 19:17:00,SystemResetWarning,0831.3,5.00,000.00,021.0,020.5,000.0,029.2,022.8,14.6,0000.0,0002.59,0006.29,0001.64
2024-04-02 19:18:00,SystemResetWarning,0831.3,5.00,000.00,021.0,020.6,000.0,029.2,022.8,14.2,0000.0,0002.58,0005.99,0001.63
2024-04-02 19:19:00,SystemResetWarning,0831.3,4.99,000.00,021.0,020.6,000.0,029.3,022.8,15.0,0000.0,0002.68,0005.33,0001.63
2024-04-02 19:20:00,SystemResetWarning,0831.3,4.99,000.00,021.0,020.6,000.0,029.3,022.8,15.5,0000.0,0002.69,0005.35,0001.63
2024-04-02 19:21:00,SystemResetWarning,0831.3,5.00,000.00,021.1,020.6,000.0,029.3,022.8,15.8,0000.0,0002.68,0005.14,0001.62
2024-04-02 19:22:00,SystemResetWarning,0831.3,5.00,000.00,021.1,020.6,000.0,029.3,022.8,14.9,0000.0,0002.64,0004.60,0001.62
2024-04-02 19:23:00,SystemResetWarning,0831.2,5.00,000.00,021.1,020.6,000.0,029.3,022.8,14.4,0000.0,0002.71,0004.73,0001.63
2024-04-02 19:24:00,SystemResetWarning,0831.2,5.00,000.00,021.1,020.6,000.0,029.3,022.9,13.9,0000.0,0002.76,0004.92,0001.63
2024-04-02 19:25:00,SystemResetWarning,0831.2,5.01,000.00,021.1,020.6,000.0,029.4,022.9,14.4,0000.0,0002.83,0005.18,0001.64
2024-04-02 19:26:00,SystemResetWarning,0831.3,5.00,000.00,021.1,020.7,000.0,029.4,022.9,14.6,0000.0,0002.89,0005.37,0001.66
2024-04-02 19:27:00,SystemResetWarning,0831.3,4.99,000.00,021.1,020.7,000.0,029.4,022.9,13.9,0000.0,0002.94,0005.49,0001.66
2024-04-02 19:28:00,SystemResetWarning,0831.3,4.99,000.00,021.2,020.7,000.0,029.4,022.9,13.9,0000.0,0002.96,0005.52,0001.67
2024-04-02 19:29:00,SystemResetWarning,0831.3,5.00,000.00,021.2,020.7,000.0,029.4,022.9,14.3,0000.0,0002.98,0005.56,0001.67
2024-04-02 19:30:00,SystemResetWarning,0831.2,5.00,000.00,021.2,020.7,000.0,029.4,023.0,14.1,0000.0,0002.93,0005.73,0001.68
2024-04-02 19:31:00,SystemResetWarning,0831.2,5.01,000.00,021.2,020.8,000.0,029.4,023.0,14.1,0000.0,0002.94,0005.94,0001.69
2024-04-02 19:32:00,SystemResetWarning,0831.2,5.00,000.00,021.2,020.8,000.0,029.4,023.0,14.4,0000.0,0002.96,0005.93,0001.71
2024-04-02 19:33:00,SystemResetWarning,0831.3,5.00,000.00,021.2,020.8,000.0,029.5,023.0,14.6,0000.0,0003.00,0006.04,0001.72
2024-04-02 19:34:00,SystemResetWarning,0831.2,5.00,000.00,021.3,020.8,000.0,029.5,023.0,15.1,0000.0,0002.93,0005.87,0001.71
2024-04-02 19:35:00,SystemResetWarning,0831.2,5.00,000.00,021.3,020.8,000.0,029.5,023.0,15.0,0000.0,0002.94,0005.89,0001.71
2024-04-02 19:36:00,SystemResetWarning,0831.2,5.00,000.00,021.3,020.8,000.0,029.5,023.1,14.3,0000.0,0002.90,0005.71,0001.69
2024-04-02 19:37:00,SystemResetWarning,0831.2,5.00,000.00,021.3,020.9,000.0,029.5,023.1,14.1,0000.0,0002.81,0005.72,0001.67
2024-04-02 19:38:00,SystemResetWarning,0831.2,5.00,000.00,021.3,020.9,000.0,029.5,023.1,14.3,0000.0,0002.77,0005.72,0001.66
2024-04-02 19:39:00,SystemResetWarning,0831.2,5.00,000.00,021.3,020.9,000.0,029.6,023.1,14.3,0000.0,0002.76,0005.81,0001.66
2024-04-02 19:40:00,SystemResetWarning,0831.2,5.00,000.00,021.3,020.9,000.0,029.6,023.1,13.9,0000.0,0002.76,0005.86,0001.64
2024-04-02 19:41:00,SystemResetWarning,0831.2,5.00,000.00,021.4,020.9,000.0,029.6,023.1,13.9,0000.0,0002.76,0005.60,0001.63
2024-04-02 19:42:00,SystemResetWarning,0831.2,4.99,000.00,021.4,020.9,000.0,029.6,023.1,14.8,0000.0,0002.77,0005.39,0001.62
2024-04-02 19:43:00,SystemResetWarning,0831.2,5.00,000.00,021.4,020.9,000.0,029.6,023.1,15.3,0000.0,0002.75,0005.63,0001.60
2024-04-02 19:44:00,SystemResetWarning,0831.2,5.00,000.00,021.4,020.9,000.0,029.6,023.2,15.1,0000.0,0002.69,0005.59,0001.59
2024-04-02 19:45:00,SystemResetWarning,0831.1,5.00,000.00,021.4,020.9,000.0,029.6,023.2,14.3,0000.0,0002.68,0005.59,0001.58
2024-04-02 19:46:00,SystemResetWarning,0831.1,5.01,000.00,021.4,020.9,000.0,029.7,023.2,14.2,0000.0,0002.67,0005.54,0001.58
2024-04-02 19:47:00,SystemResetWarning,0831.1,5.00,000.00,021.4,021.0,000.0,029.7,023.2,14.2,0000.0,0002.81,0005.97,0001.58
2024-04-02 19:48:00,SystemResetWarning,0831.1,5.00,000.00,021.4,021.0,000.0,029.7,023.2,14.5,0000.0,0002.85,0005.83,0001.59
2024-04-02 19:49:00,SystemResetWarning,0831.1,5.00,000.00,021.5,021.0,000.0,029.7,023.2,14.1,0000.0,0002.79,0005.57,0001.59
2024-04-02 19:50:00,SystemResetWarning,0831.1,5.00,000.00,021.5,021.0,000.0,029.7,023.2,14.3,0000.0,0002.74,0005.34,0001.59
2024-04-02 19:51:00,SystemResetWarning,0831.1,5.00,000.00,021.5,021.0,000.0,029.7,023.3,14.2,0000.0,0002.75,0005.69,0001.61
2024-04-02 19:52:00,SystemResetWarning,0831.1,5.00,000.00,021.5,021.0,000.0,029.7,023.3,14.3,0000.0,0002.76,0005.89,0001.62
2024-04-02 19:53:00,SystemResetWarning,0831.1,5.00,000.00,021.5,021.0,000.0,029.8,023.3,13.7,0000.0,0002.75,0005.79,0001.62
2024-04-02 19:54:00,SystemResetWarning,0831.2,5.00,000.00,021.5,021.1,000.0,029.8,023.3,14.1,0000.0,0002.75,0005.59,0001.64
2024-04-02 19:55:00,SystemResetWarning,0831.2,4.99,000.00,021.5,021.1,000.0,029.8,023.3,14.4,0000.0,0002.86,0005.70,0001.65
2024-04-02 19:56:00,SystemResetWarning,0831.1,5.00,000.00,021.6,021.1,000.0,029.8,023.3,14.0,0000.0,0002.91,0005.82,0001.65
2024-04-02 19:57:00,SystemResetWarning,0831.1,5.00,000.00,021.6,021.1,000.0,029.8,023.3,14.3,0000.0,0002.89,0005.76,0001.64
2024-04-02 19:58:00,SystemResetWarning,0831.1,5.00,000.00,021.6,021.1,000.0,029.8,023.4,14.0,0000.0,0002.79,0005.41,0001.64
2024-04-02 19:59:00,SystemResetWarning,0831.1,5.00,000.00,021.6,021.1,000.0,029.8,023.4,14.0,0000.0,0002.77,0005.37,0001.64
